Flag for China Weather past 2 weeks in Chengdu, Sichuan, China

Now
79 °F

Passing clouds.


Feels Like: 82 °F
Forecast: 77 / 95 °F
Wind: 1 mph from North

Location: Chengdu Airport

Current Time: Jul 28, 2014 at 10:05:22 PM

Latest Report: Jul 28, 2014 at 9:00 PM


Visibility: 4 mi

Pressure: 29.62 "Hg

Humidity: 79%

Dew point: 72 °F

Location of ChengduLocation

Historic Weather in Chengdu — Graph

°F

Chengdu temperature yesterday

Maximum temperature yesterday: 97 °F (at 3:00 PM)
Minimum temperature yesterday: 77 °F (at 4:00 AM)
Average temperature yesterday: 86 °F

Past Weeks' High & Low Weather Summary

 TemperatureHumidityPressure
High99 °F (Jul 22, 4:00 PM)100% (Jul 27, 8:00 PM)29.83 "Hg (Jul 27, 8:00 PM)
Low72 °F (Jul 15, 4:00 AM)34% (Jul 25, 1:00 PM)29.59 "Hg (Jul 22, 6:00 PM)
Average82 °F69%29.72 "Hg
* Reported Jul 13 9:00 PM — Jul 28 9:00 PM, Chengdu, Weather by CustomWeather, © 2014

Note: Actual official high and low records may vary slightly from our data, if they occured in-between our weather recording intervals... More about our weather records

Advertising

Chengdu weather history for previous 24 hours

 ConditionsComfort  
Time TempWeatherWind HumidityBarometerVisibility
9:00 PM
Jul 28
79 °FPassing clouds.1 mph79%29.62 "Hg4 mi
8:00 PM81 °FPassing clouds.1 mph74%29.62 "Hg4 mi
7:00 PM82 °FScattered clouds.3 mph70%29.59 "Hg5 mi
6:00 PM81 °FScattered clouds.10 mph79%29.59 "Hg5 mi
5:00 PM81 °FThunderstorms. Scattered clouds.6 mph74%29.59 "HgN/A
4:00 PM81 °FThunderstorms. Scattered clouds.6 mph74%29.62 "HgN/A
3:00 PM86 °FThunderstorms. Scattered clouds.10 mph62%29.62 "Hg5 mi
2:00 PM91 °FThunderstorms. Scattered clouds.1 mph49%29.65 "HgN/A
1:00 PM91 °FScattered clouds.3 mph56%29.65 "HgN/A
12:00 PM91 °FScattered clouds.3 mph52%29.68 "Hg4 mi
11:00 AM88 °FClear.1 mph55%29.68 "Hg4 mi
10:00 AM88 °FClear.No wind59%29.71 "Hg4 mi
9:00 AM84 °FClear.1 mph62%29.71 "Hg4 mi
8:00 AM79 °FFog.1 mph79%29.71 "Hg3 mi
7:00 AM79 °FFog.No wind74%29.68 "Hg3 mi
6:00 AM79 °FClear.1 mph74%29.68 "Hg4 mi
5:00 AM79 °FPassing clouds.3 mph74%29.68 "HgN/A
4:00 AM77 °FPassing clouds.1 mph83%29.71 "HgN/A
3:00 AM79 °FPassing clouds.3 mph74%29.71 "HgN/A
2:00 AM77 °FPassing clouds.No wind83%29.71 "HgN/A
1:00 AM79 °FPassing clouds.No wind84%29.74 "HgN/A
12:00 AM81 °FPassing clouds.No wind79%29.74 "HgN/A
11:00 PM
Jul 27
79 °FPassing clouds.1 mph79%29.74 "HgN/A
10:00 PM82 °FThunderstorms. Passing clouds.3 mph70%29.74 "HgN/A
Weather by CustomWeather, © 2014

See weather overviewHow to use our weather pages